Home   Weather   India   Cuddalore   Past weeks
Flag for India

Past Weather in Cuddalore, Tamil Nadu, India — Yesterday and Last 2 Weeks

Currently: 84 °F. Fog. (Weather station: Madras / Minambakkam, India). See more current weather

Past Weather in Cuddalore — Graph

°F

Cuddalore Temperature Yesterday

Maximum temperature yesterday: 95 °F (at 3:00 pm)
Minimum temperature yesterday: 79 °F (at 12:00 am)
Average temperature yesterday: 87 °F

High & Low Weather Summary for the Past Weeks

 TemperatureHumidityPressure
High97 °F (Jul 20, 3:30 pm)94% (Jul 20, 10:30 pm)29.83 "Hg (Jul 20, 10:30 pm)
Low79 °F (Jul 18, 4:00 am)44% (Jul 28, 4:00 pm)29.50 "Hg (Jul 23, 3:30 pm)
Average88 °F66%29.67 "Hg
* Reported Jul 18 1:30 am — Aug 2 2:00 am, Cuddalore. Weather by CustomWeather, © 2021

Note: Actual official high and low records may vary slightly from our data, if they occured in-between our weather recording intervals... More about our weather records

Cuddalore Weather History for the Previous 24 Hours

Scroll right to see more
 ConditionsComfort  
Time TempWeatherWind HumidityBarometerVisibility
2:00 am
Mon, Aug 2
84 °FFog.3 mph84%29.68 "Hg3 mi
1:30 am86 °FFog.3 mph79%29.68 "Hg3 mi
1:00 am86 °FFog.6 mph79%29.71 "Hg3 mi
12:30 am86 °FFog.7 mph79%29.71 "Hg3 mi
12:00 am86 °FFog.7 mph79%29.71 "Hg3 mi
11:30 pm
Sun, Aug 1
86 °FHaze.7 mph75%29.74 "Hg3 mi
11:00 pm86 °FHaze.7 mph70%29.74 "Hg3 mi
10:30 pm86 °FHaze.5 mph75%29.74 "Hg3 mi
10:00 pm86 °FHaze.5 mph70%29.74 "Hg3 mi
9:30 pm86 °FHaze.5 mph70%29.71 "Hg3 mi
9:00 pm88 °FHaze.5 mph66%29.71 "Hg3 mi
8:30 pm88 °FHaze.5 mph66%29.71 "Hg3 mi
8:00 pm88 °FPassing clouds.5 mph70%29.68 "Hg4 mi
7:30 pm88 °FPassing clouds.6 mph66%29.68 "Hg4 mi
7:00 pm88 °FScattered clouds.6 mph66%29.68 "Hg4 mi
6:30 pm90 °FScattered clouds.6 mph63%29.68 "Hg4 mi
6:00 pm93 °FScattered clouds.2 mph53%29.65 "Hg4 mi
5:30 pm93 °FScattered clouds.2 mph53%29.65 "Hg4 mi
5:00 pm95 °FScattered clouds.2 mph50%29.65 "Hg4 mi
4:30 pm95 °FScattered clouds.7 mph47%29.62 "Hg4 mi
4:00 pm95 °FBroken clouds.7 mph50%29.62 "Hg4 mi
3:30 pm95 °FScattered clouds.8 mph47%29.62 "Hg4 mi
3:00 pm95 °FScattered clouds.6 mph53%29.62 "Hg4 mi
2:30 pm93 °FScattered clouds.9 mph56%29.65 "Hg4 mi
2:00 pm93 °FScattered clouds.9 mph53%29.65 "Hg4 mi
1:30 pm93 °FScattered clouds.9 mph53%29.65 "Hg5 mi
1:00 pm93 °FScattered clouds.10 mph49%29.68 "Hg5 mi
12:00 pm91 °FScattered clouds.14 mph52%29.71 "Hg5 mi
11:30 am91 °FScattered clouds.14 mph52%29.74 "Hg5 mi
11:00 am91 °FScattered clouds.14 mph52%29.74 "Hg4 mi
10:30 am90 °FPartly sunny.14 mph59%29.74 "Hg4 mi
10:00 am90 °FPartly sunny.10 mph59%29.77 "Hg4 mi
9:30 am88 °FBroken clouds.9 mph62%29.77 "Hg4 mi
9:00 am86 °FBroken clouds.8 mph70%29.77 "Hg4 mi
8:30 am84 °FFog.7 mph74%29.77 "Hg3 mi
8:00 am82 °FFog.5 mph79%29.77 "Hg3 mi
7:30 am82 °FFog.2 mph79%29.77 "Hg3 mi
7:00 am82 °FFog.3 mph79%29.74 "Hg3 mi
6:30 am82 °FFog.3 mph79%29.74 "Hg3 mi
5:00 am81 °FFog.6 mph84%29.71 "Hg3 mi
4:30 am81 °FFog.7 mph84%29.71 "Hg3 mi
4:00 am81 °FFog.9 mph84%29.71 "Hg3 mi
3:30 am81 °FFog.5 mph84%29.71 "Hg3 mi
3:00 am81 °FFog.2 mph89%29.74 "Hg3 mi
Weather by CustomWeather, © 2021

See weather overview